Location: ??????
(56.0120°N, 39.1740°E)
Time: 18:18:54
(UTC+00:00)

Cosmos 1943 - Pass Details

Date: 14 April 2026
Orbit: 832 x 847 km, 71.0° (Epoch: 16 May)

Event Time Altitude Azimuth Distance (km) Brightness Sun altitude
Exits shadow 20:52:23 61° 172° (S) 963 3.1 -24.0°
Maximum altitude 20:53:15 71° 120° (ESE) 896 3.1 -24.0°
Drops below altitude 10° 20:58:55 10° 37° (NE) 2,477 6.2 -24.1°
Sets 21:01:22 0° 36° (NE) 3,414 7.1 -24.2°
